{"data":{"norad_id":87843,"intl_designator":"","name":"UNKNOWN","alt_names":[],"object_type":"UNKNOWN","status":"UNKNOWN","operator":null,"country":null,"launch_date":null,"launch_site_code":null,"launch_vehicle":null,"mission":null,"orbit_class":"UNKNOWN","rcs_meters":null,"size_class":null,"mass_kg":null,"dimensions":null,"purposes":[],"wikipedia_slug":null,"has_3d_model":false,"image_url":null,"decayed_at":null,"tle_current":{"epoch":"2026-09-17T13:09:57.443328Z","epoch_age_seconds":269544,"freshness":"STALE","line1":"1 87843U          26260.54858152  .00000384  00000+0  94448-3 0  9990","line2":"2 87843  99.6570 356.3521 0235215  72.0541 290.6066 13.17468830600860","mean_motion":13.1746883,"eccentricity":0.0235215,"inclination_deg":99.657,"raan_deg":356.3521,"arg_perigee_deg":72.0541,"mean_anomaly_deg":290.6066,"bstar":0.00094448,"rev_number":60086,"period_min":109.3004985932,"perigee_km":1016.286055025,"apogee_km":1372.5210809652,"semimajor_km":7572.5405679951,"source":"CELESTRAK","updated_at":"2026-09-20T09:00:32.480048Z"}}}